Kansas City, MO

5:39 AM CST on February 08, 2016 (GMT -0600)
Kansas City Downtown

Weather History for KMKC - October, 2012

Change the Weather History Date:

Sunday, October 21, 2012

  Actual Average Record
Temperature  
Mean Temperature 62 °F -  
Max Temperature 77 °F 64 °F 84 °F (2015)
Min Temperature 50 °F 46 °F 35 °F (2011)
Degree Days  
Heating Degree Days 2    
Growing Degree Days 12 (Base 50)    
Moisture  
Dew Point 57 °F    
Average Humidity 71    
Maximum Humidity 83    
Minimum Humidity 62    
Precipitation  
Precipitation 0.00 in - - ()
Sea Level Pressure  
Sea Level Pressure 29.77 in    
Wind  
Wind Speed 6 mph (SE)    
Max Wind Speed 12 mph    
Max Gust Speed -    
Visibility 10 miles    
Events      
Averages and records for this station are not official NWS values.
T = Trace of Precipitation, MM = Missing Value Source: NWS Daily Summary

Daily Weather History Graph

Daily Weather History Graph

Search for Another Location

Airport or City:

Trip Planner

Search our weather history database for the weather conditions in past years. The results will help you decide how hot, cold, wet, or windy it might be!

Date:

Astronomy

Oct. 21, 2012 Rise Set
Actual Time 7:34 AM CDT 6:30 PM CDT
Civil Twilight 7:07 AM CDT 6:57 PM CDT
Nautical Twilight 6:36 AM CDT 7:28 PM CDT
Astronomical Twilight 6:05 AM CDT 7:59 PM CDT
Moon 1:55 PM CDT (10/21) No Moon Set
Length of Visible Light 11h 50m
Length of Day
10h 55m
Waxing Crescent, 45% of the Moon is Illuminated
Oct 21
Waxing Crescent
Oct 21
First Quarter
Oct 29
Full
Nov 6
Last Quarter
Nov 13
New

Hourly Weather History & Observations

Time (CDT) Temp. Dew Point Humidity Pressure Visibility Wind Dir Wind Speed Gust Speed Precip Events Conditions
12:54 AM 53.1 °F 44.1 °F 71% 29.75 in 10.0 mi ENE 6.9 mph - N/A   Clear
1:54 AM 52.0 °F 44.1 °F 74% 29.75 in 10.0 mi East 3.5 mph - N/A   Clear
2:54 AM 51.1 °F 44.1 °F 77% 29.76 in 10.0 mi Calm Calm - N/A   Clear
3:54 AM 51.1 °F 44.1 °F 77% 29.76 in 10.0 mi Calm Calm - N/A   Clear
4:54 AM 51.1 °F 44.1 °F 77% 29.77 in 10.0 mi ENE 3.5 mph - N/A   Clear
5:54 AM 50.0 °F 44.1 °F 80% 29.78 in 10.0 mi East 3.5 mph - N/A   Clear
6:54 AM 50.0 °F 44.1 °F 80% 29.79 in 10.0 mi ENE 5.8 mph - N/A   Clear
7:54 AM 50.0 °F 45.0 °F 83% 29.80 in 10.0 mi East 3.5 mph - N/A   Clear
8:54 AM 57.0 °F 48.0 °F 72% 29.80 in 10.0 mi Calm Calm - N/A   Clear
9:54 AM 64.0 °F 52.0 °F 65% 29.81 in 10.0 mi Calm Calm - N/A   Clear
10:54 AM 71.1 °F 57.9 °F 63% 29.81 in 10.0 mi South 9.2 mph - N/A   Clear
11:54 AM 73.9 °F 60.1 °F 62% 29.80 in 10.0 mi SSE 6.9 mph - N/A   Clear
12:54 PM 75.9 °F 63.0 °F 64% 29.79 in 10.0 mi South 10.4 mph - N/A   Clear
1:23 PM 75.2 °F 62.6 °F 65% 29.80 in 10.0 mi South 11.5 mph - N/A   Mostly Cloudy
1:54 PM 75.0 °F 64.0 °F 69% 29.77 in 10.0 mi South 9.2 mph - N/A   Overcast
2:54 PM 75.0 °F 64.0 °F 69% 29.75 in 10.0 mi Variable 5.8 mph - N/A   Overcast
3:31 PM 75.2 °F 64.4 °F 69% 29.76 in 10.0 mi SSE 8.1 mph - N/A   Overcast
3:54 PM 75.9 °F 64.9 °F 69% 29.75 in 10.0 mi SSE 6.9 mph - N/A   Overcast
4:54 PM 75.9 °F 64.9 °F 69% 29.74 in 10.0 mi SSE 8.1 mph - N/A   Overcast
5:54 PM 75.9 °F 64.9 °F 69% 29.74 in 10.0 mi SE 10.4 mph - N/A   Overcast
6:54 PM 75.0 °F 66.0 °F 73% 29.74 in 10.0 mi SE 10.4 mph - N/A   Mostly Cloudy
7:54 PM 73.9 °F 64.9 °F 73% 29.75 in 10.0 mi SE 9.2 mph - N/A   Clear
8:54 PM 73.9 °F 64.9 °F 73% 29.77 in 10.0 mi South 11.5 mph - N/A   Mostly Cloudy
9:54 PM 75.9 °F 64.9 °F 69% 29.77 in 10.0 mi SSE 9.2 mph - N/A   Overcast
10:54 PM 75.0 °F 64.9 °F 71% 29.78 in 10.0 mi Variable 4.6 mph - N/A   Overcast
11:54 PM 73.9 °F 64.9 °F 73% 29.78 in 10.0 mi SSE 10.4 mph - N/A   Overcast